sat.trackr.live / text

‹ back to catalog

STARLINK-2377

NORAD 47797 · 2021-018L

PAYLOAD ACTIVE UNKNOWN

§ Identity

Operator
Country
US
Launch date
2021-03-11
Launch site
AFETR
Launch vehicle
Mass (kg)
RCS (m²)

Purposes: comms

External: N2YO · Heavens-Above · Gunter

§ Orbital elements

Epoch: 2026-09-20T04:18:16.314336Z

Period
94.01 min
Inclination
53.1582°
Eccentricity
0.0000815
Mean motion
15.31687292 rev/d
Perigee alt
470.2 km
Apogee alt
471.3 km
Semi-major
6,848.9 km
B*
-1.1998e-4
RAAN
70.2702°
Arg perigee
135.1139°
Mean anomaly
224.9928°
Rev number
30,634

§ Raw data

STARLINK-23771 47797U 21018L   26263.17935549 -.00004084  00000+0 -11998-3 0  99962 47797  53.1582  70.2702 0000815 135.1139 224.9928 15.31687292306341

JSON: /api/v1/satellites/47797 · /tle

For live sub-satellite position, see the globe view (requires WebGL).

§ Visibility from observer

Set your observer location to see the next 7 days of passes ≥ 10°. The values pass through the URL so the page stays shareable.

No JS? Fill the form by hand. The geolocation button needs JavaScript.